Starlink 3740

operational
NORAD ID: 52265 Int'l Des: 2022-041 Owner: SPXS Country: US Constellation: starlink
LEOCIRCULAR

Über Starlink 3740

Beschreibung wird geladen...

Live-Position

3D-Globus wird geladen...

Nächste Überflüge

Höhenverlauf

Altitude vs Time

uPlot chart will show altitude changes over time

Zweizeiliger Elementsatz

1 52265U 22041E 25296.45513835 .00000421 00000-0 44532-4 0 9996
2 52265 53.2196 5.1903 0001741 83.2799 276.8392 15.08849356193646
Epoch: 23. Okt. 2025 • Age: 28 hours

Aktueller Status

Höhe 539.7 km
Geschwindigkeit 7.60 km/s
Subsatellitenpunkt 19.74°N, 88.22°W
Startdatum 21. Apr. 2022
Alter 3.5 years
Typ internet

Technische Details

Klassifizierung Payload
Masse 297.00 kg
Trockenmasse 275.00 kg
Gesamtmasse 297.00 kg
Länge 0.20 m
Durchmesser 2.80 m
Spannweite 9.00 m
Form Box + pan
Hersteller SPXS
Bus-Typ Starlink
Phasenstatus In Orbit
Besitzer/Staat SPXS/US

Große Konstellationen

Loading constellations...